CAPE
0 0 0 0 0 0 10 23 5 5 0 0 0 0 0 0 0 0 0 0 0 0 0 0 0 0 0 0 0 0 0 0 0 0 0 0 0 0 0 0 0 0 0 0 0 0 0 0 0 0 0 0 0 0
0 0 0 0 0 0 0 0 15 9 5 0 0 0 0 0 0 0 0 0 0 0 0 0 0 0 0 0 0 0 0 0 0 0 0 0 0 0 0 0 0 0 0 0 0 0 0 0 0 0 0 0 0 0
0 0 0 0 0 0 0 0 0 10 14 3 0 0 0 0 0 0 0 0 0 0 0 0 0 0 0 0 0 0 0 0 0 0 0 0 0 0 0 0 0 0 0 0 0 0 0 0 0 0 0 0 0 0
0 0 0 0 0 0 1 1 0 0 0 27 11 0 0 0 0 0 0 0 0 0 0 0 0 0 0 0 0 0 0 0 0 0 0 0 0 0 0 0 0 0 0 0 0 0 0 0 0 0 0 0 0 0
2 3 2 3 2 2 2 2 1 0 0 0 17 26 1 0 0 0 0 0 0 0 0 0 0 0 0 0 0 0 0 0 0 0 0 0 0 0 0 0 0 0 0 0 0 0 0 0 0 0 0 0 0 0
1 4 4 6 4 1 1 6 5 1 0 0 0 19 32 1 0 0 0 0 0 0 0 0 0 0 0 0 0 0 0 0 0 0 0 0 0 0 0 0 0 0 0 0 0 0 0 0 0 0 0 0 0 0
4 6 6 5 7 5 2 9 8 13 6 4 19 18 31 7 0 0 0 0 0 0 0 0 0 0 0 0 0 0 0 0 0 0 0 0 0 0 0 0 0 0 0 0 0 0 0 0 0 0 0 0 0 0
8 7 9 9 8 5 5 10 2 6 13 17 30 23 11 7 0 0 0 0 0 0 0 0 0 0 0 0 0 0 0 0 0 0 0 0 0 0 0 0 0 0 0 0 0 0 0 0 0 0 0 0 0 0
7 8 9 10 10 10 10 13 5 4 23 29 26 10 3 14 2 0 0 0 0 0 0 0 0 0 0 0 0 0 0 0 0 0 0 0 0 0 0 0 0 0 0 0 0 0 0 0 0 0 0 0 0 0
9 13 17 21 22 28 25 15 8 22 30 22 0 0 0 0 1 0 0 0 4 2 2 0 0 0 0 0 0 0 0 0 0 0 0 1 0 0 0 0 0 0 0 0 0 0 0 0 0 0 0 0 0 0
25 32 38 42 42 38 35 18 29 31 2 0 0 0 4 14 0 0 0 2 1 2 2 1 0 0 0 0 0 0 0 0 0 0 0 0 0 0 0 0 0 0 0 0 0 0 0 0 0 0 0 0 0 0
37 37 46 62 53 45 46 55 56 4 0 0 0 0 3 11 0 2 1 4 2 0 0 3 0 0 0 0 0 1 3 0 0 0 1 0 0 0 0 0 0 0 0 0 0 0 0 0 0 0 0 0 0 0
51 66 68 68 67 57 59 73 64 5 0 1 0 1 0 1 0 2 0 0 1 0 0 0 0 0 0 0 0 1 3 0 0 1 0 0 0 0 0 0 0 0 0 0 0 0 0 0 0 0 0 0 0 0
66 76 67 74 77 67 71 71 73 30 17 21 0 0 0 0 0 0 0 0 0 0 0 0 0 0 0 2 2 17 0 0 0 0 0 0 0 0 0 0 0 0 0 0 0 0 0 0 0 0 0 0 0 0
66 78 71 58 64 64 71 81 90 28 7 1 0 0 0 0 0 0 0 0 0 0 0 0 1 3 1 0 3 1 0 0 0 0 0 0 0 0 0 0 0 0 0 0 0 0 0 0 0 0 0 0 0 0
81 79 36 59 60 61 75 61 66 26 10 1 0 1 0 0 0 0 0 0 0 0 0 0 0 0 0 0 0 0 0 0 0 0 0 0 0 0 0 0 0 0 0 0 0 0 0 0 0 0 0 0 0 0
79 40 32 42 56 65 68 54 47 25 0 0 0 0 0 0 0 0 0 0 0 0 0 0 0 0 0 0 0 0 0 0 0 0 0 0 0 0 0 0 0 0 0 0 0 0 0 0 0 0 0 0 0 0
37 4 59 61 53 50 55 50 24 1 0 0 0 0 0 0 0 0 0 0 0 0 0 0 0 2 0 0 0 0 0 0 0 0 0 0 0 0 0 0 0 0 0 0 0 0 0 0 0 0 0 0 0 0
9 6 40 74 74 12 22 1 0 0 0 0 0 0 0 0 0 0 0 0 0 0 0 0 0 0 0 0 0 0 0 0 0 0 0 0 0 0 0 0 0 0 0 0 0 0 0 0 0 0 0 0 0 0
93 85 79 84 91 6 167 0 0 0 0 0 0 0 0 0 0 0 0 0 0 0 0 0 0 0 0 0 0 0 0 0 0 0 0 0 0 0 0 0 0 0 0 0 0 0 0 0 0 0 0 0 0 0
69 26 59 76 42 14 0 0 0 1 0 0 0 0 0 0 0 0 0 0 0 0 0 0 0 0 0 0 0 0 0 0 0 0 0 0 0 0 0 0 0 0 0 0 0 0 0 0 0 0 0 0 0 0
22 51 31 36 1 8 0 0 0 0 1 0 0 0 0 0 0 0 0 0 0 0 0 0 0 0 0 0 0 0 0 0 0 0 0 0 0 0 0 0 0 0 0 0 0 0 0 0 0 0 0 0 0 0
43 12 0 5 0 0 0 1 0 0 0 0 0 0 0 0 0 0 0 0 0 0 0 0 0 0 0 0 0 0 0 0 0 0 0 0 0 0 0 0 0 0 0 0 0 0 0 0 0 0 0 0 0 0
0 0 0 0 0 0 1 0 2 2 1 3 2 0 0 0 0 0 0 0 0 0 0 0 0 0 0 0 0 0 0 0 0 0 0 0 0 0 0 0 0 0 0 0 0 0 0 0 0 0 0 0 0 0
0 0 0 0 0 0 0 4 5 2 1 2 1 0 1 0 3 4 0 0 0 0 0 0 0 0 0 0 0 0 0 0 0 0 0 0 0 0 0 0 0 0 0 0 0 0 0 0 0 0 0 0 0 0
0 0 0 0 0 0 0 0 1 1 0 0 0 0 0 0 0 0 0 0 0 0 0 0 0 0 0 0 0 0 0 0 0 0 0 0 0 0 0 0 0 0 0 0 0 0 0 0 0 0 0 0 0 0
0 0 2 0 0 0 0 0 0 0 0 0 0 0 0 0 0 0 0 0 0 0 0 0 0 0 0 0 0 0 0 0 0 0 0 0 0 0 0 0 0 0 0 0 0 0 0 0 0 0 0 0 0 0
0 0 0 0 0 0 0 0 0 0 0 0 0 0 0 0 0 0 0 0 0 0 0 0 0 0 0 0 0 0 0 0 0 0 0 0 0 0 0 0 0 0 0 0 0 0 0 0 0 0 0 0 0 0
0 0 0 0 0 0 0 0 0 0 0 0 0 0 0 0 0 0 0 0 0 0 0 0 0 0 0 0 0 0 0 0 0 0 0 0 0 0 0 0 0 0 0 0 0 0 0 0 0 0 0 0 0 0
0 0 0 0 0 0 0 0 0 0 0 0 0 0 0 0 0 0 0 0 0 0 0 0 0 0 0 0 0 0 0 0 0 0 0 0 0 0 0 0 0 0 0 0 0 0 4 0 0 0 0 0 0 0
0 0 0 0 0 0 0 0 0 0 0 0 0 0 0 0 0 0 0 0 0 0 0 0 0 0 0 0 0 0 0 0 0 0 0 0 0 0 0 0 0 0 0 0 0 0 1 0 0 0 0 0 0 0
0 0 0 0 0 0 0 0 0 0 0 0 0 0 0 0 0 0 0 0 0 0 0 0 0 0 0 0 0 0 0 0 0 0 0 0 0 0 0 0 0 0 0 0 0 0 0 0 0 0 0 0 0 0
0 0 0 0 0 0 0 0 0 0 0 0 0 0 0 0 0 0 0 0 0 0 0 0 0 0 0 0 0 0 0 0 0 0 0 0 0 0 0 0 0 0 0 0 0 0 0 0 0 0 0 0 0 0
CIN
0 0 0 0 0 0 -2 -3 0 -10 0 0 0 0 0 0 0 0 0 0 0 0 0 0 0 0 0 0 0 0 0 0 0 0 0 0 0 0 0 0 0 0 0 0 0 0 0 0 0 0 0 0 0 0
0 0 0 0 0 0 0 0 -1 -1 -3 0 0 0 0 0 0 0 0 0 0 0 0 0 0 0 0 0 0 0 0 0 0 0 0 0 0 0 0 0 0 0 0 0 0 0 0 0 0 0 0 0 0 0
0 0 0 0 0 0 0 0 0 0 -1 -6 0 0 0 0 0 0 0 0 0 0 0 0 0 0 0 0 0 0 0 0 0 0 0 0 0 0 0 0 0 0 0 0 0 0 0 0 0 0 0 0 0 0
0 0 0 0 0 0 0 0 0 0 0 0 -10 -1 -17 0 0 0 0 0 0 0 0 0 0 0 0 0 0 0 0 0 0 0 0 0 0 0 0 0 0 0 0 0 0 0 0 0 0 0 0 0 0 0
0 0 0 0 0 0 0 0 0 0 0 0 -1 -8 -8 0 0 0 0 0 0 0 0 0 0 0 0 0 0 0 0 0 0 0 0 0 0 0 0 0 0 0 0 0 0 0 0 0 0 0 0 0 0 0
0 0 0 0 0 0 0 0 0 -1 0 0 0 0 -3 -11 0 0 0 0 0 0 0 0 0 0 0 0 0 0 0 0 0 0 0 0 0 0 0 0 0 0 0 0 0 0 0 0 0 0 0 0 0 0
0 0 0 0 0 0 0 0 -1 -2 -2 0 0 -1 -1 -9 0 0 0 0 0 0 0 0 0 0 0 0 0 0 0 0 0 0 0 0 0 0 0 0 0 0 0 0 0 0 0 0 0 0 0 0 0 0
0 0 0 0 0 0 0 0 -1 -3 -1 0 0 -1 -4 -19 0 0 0 0 0 0 0 0 0 0 0 0 0 0 0 0 0 0 0 0 0 0 0 0 0 0 0 0 0 0 0 0 0 0 0 0 0 0
0 0 0 0 0 0 0 0 0 0 0 -1 -3 -11 -3 -7 -15 0 0 0 0 0 0 0 0 0 0 0 0 0 0 0 0 0 0 0 0 0 0 0 0 0 0 0 0 0 0 0 0 0 0 0 0 0
0 0 0 0 0 0 0 0 0 0 -1 -4 0 0 0 0 -53 -8 0 0 0 -2 0 0 0 0 0 0 0 0 0 0 0 0 0 0 0 0 0 0 0 0 0 0 0 0 0 0 0 0 0 0 0 0
0 0 0 0 0 0 0 0 0 -3 -11 0 -1 0 -20 -8 -3 0 0 0 0 0 0 0 0 0 0 0 0 0 0 0 0 0 0 0 0 0 0 0 0 0 0 0 0 0 0 0 0 0 0 0 0 0
0 0 0 0 0 0 0 0 -1 0 0 0 -1 0 -13 -7 0 0 0 0 -1 0 0 -1 0 0 0 0 0 0 0 0 0 0 0 0 0 0 0 0 0 0 0 0 0 0 0 0 0 0 0 0 0 0
0 0 0 0 0 0 0 0 -3 -20 0 -22 0 0 0 0 0 0 0 0 0 0 0 0 0 0 0 0 0 0 0 0 0 0 0 0 0 0 0 0 0 0 0 0 0 0 0 0 0 0 0 0 0 0
0 0 0 0 0 -2 -2 -4 -8 -4 -4 0 0 0 0 0 0 0 0 0 0 0 0 0 0 0 0 0 0 0 0 0 0 0 0 0 0 0 0 0 0 0 0 0 0 0 0 0 0 0 0 0 0 -1
0 0 0 0 0 -2 -3 -2 -9 -4 0 0 0 0 0 0 0 0 0 0 0 0 0 0 0 0 0 0 0 0 0 0 0 0 0 0 0 0 0 0 0 0 0 0 0 0 0 0 0 0 0 0 0 0
0 0 -1 -1 0 -1 -2 -9 -8 -3 0 0 0 0 0 0 0 0 0 0 0 0 0 0 0 0 0 0 0 0 0 0 0 0 0 0 0 0 0 0 0 0 0 0 0 0 0 0 0 0 0 0 0 0
0 -1 -1 -1 -1 -1 -7 -5 -4 -2 0 0 0 0 0 0 0 0 0 0 0 0 0 0 0 0 0 0 0 0 0 0 0 0 0 0 0 0 0 0 0 0 0 0 0 0 0 0 0 0 0 0 0 0
-1 -3 -1 0 -8 -8 -2 0 -6 0 0 0 0 0 0 0 0 0 0 0 0 0 0 0 0 0 0 0 0 0 0 0 0 0 0 0 0 0 0 0 0 0 0 0 0 0 0 0 0 0 0 0 0 0
-2 -5 -4 -1 -5 -7 -3 -8 0 0 0 0 0 0 0 0 0 0 0 0 0 0 0 0 0 0 0 0 0 0 0 0 0 0 0 0 0 0 0 0 0 0 0 0 0 0 0 0 0 0 0 0 0 0
0 0 0 -1 -1 -11 0 0 0 0 0 0 0 0 0 0 0 0 0 0 0 0 0 0 0 0 0 0 0 0 0 0 0 0 0 0 0 0 0 0 0 0 0 0 0 0 0 0 0 0 0 0 0 0
0 -3 -2 -1 -3 0 0 0 0 0 0 0 0 0 0 0 0 0 0 0 0 0 0 0 0 0 0 0 0 0 0 0 0 0 0 0 0 0 0 0 0 0 0 0 0 0 0 0 0 0 0 0 0 0
-1 -1 -4 -1 0 0 0 0 0 0 0 0 0 0 0 0 0 0 0 0 0 0 0 0 0 0 0 0 0 0 0 0 0 0 0 0 0 0 0 0 0 0 0 0 0 0 0 0 0 0 0 0 0 0
-1 -1 0 0 0 0 0 0 0 0 0 0 0 0 0 0 0 0 0 0 0 0 0 0 0 0 0 0 0 0 0 0 0 0 0 0 0 0 0 0 0 0 0 0 0 0 0 0 0 0 0 0 0 0
0 0 0 0 0 0 0 0 0 0 0 0 0 0 0 0 0 0 0 0 0 0 0 0 0 0 0 0 0 0 0 0 0 0 0 0 0 0 0 0 0 0 0 0 0 0 0 0 0 0 0 0 0 0
0 0 0 0 0 0 0 0 0 0 0 0 0 0 0 0 0 0 0 0 0 0 0 0 0 0 0 0 0 0 0 0 0 0 0 0 0 0 0 0 0 0 0 0 0 0 0 0 0 0 0 0 0 0
0 0 0 0 0 0 0 0 0 0 0 0 0 0 0 0 0 0 0 0 0 0 0 0 0 0 0 0 0 0 0 0 0 0 0 0 0 0 0 0 0 0 0 0 0 0 0 0 0 0 0 0 -4 -1
0 0 0 0 0 0 0 0 0 0 0 0 0 0 0 0 0 0 0 0 0 0 0 0 0 0 0 0 0 0 0 0 0 -1 0 0 0 0 0 0 0 0 0 0 0 0 0 0 0 0 0 0 0 0
0 0 0 0 0 0 0 0 0 0 0 0 0 0 0 0 0 0 0 0 0 0 0 0 0 0 0 0 0 0 0 0 0 0 0 0 0 0 0 0 0 0 0 0 0 0 0 0 0 0 0 0 0 0
0 0 0 0 0 0 0 0 0 0 0 0 0 0 0 0 0 0 0 0 0 0 0 0 0 0 0 0 0 0 0 0 0 0 0 0 0 0 0 0 0 0 0 0 0 0 0 0 0 0 0 0 0 0
0 0 0 0 0 0 0 0 0 0 0 0 0 0 0 0 0 0 0 0 0 0 0 0 0 0 0 0 0 0 0 0 0 0 0 0 0 0 0 0 0 0 0 0 0 0 -3 0 0 0 0 0 0 0
0 0 0 0 0 0 0 0 0 0 0 0 0 0 0 0 0 0 0 0 0 0 0 0 0 0 0 0 0 0 0 0 0 0 0 0 0 0 0 0 0 0 0 0 0 0 0 0 0 0 0 0 0 0
0 0 0 0 0 0 0 0 0 0 0 0 0 0 0 0 0 0 0 0 0 0 0 0 0 0 0 0 0 0 0 0 0 0 0 0 0 0 0 0 0 0 0 0 0 0 0 0 0 0 0 0 0 0
0 0 0 0 0 0 0 0 0 0 0 0 0 0 0 0 0 0 0 0 0 0 0 0 0 0 0 0 0 0 0 0 0 0 0 0 0 0 0 0 0 0 0 0 0 0 0 0 0 0 0 0 0 0
Wind_Speed
4 5 6 6 7 9 10 6 6 6 7 8 7 10 13 15 16 5 1 4 3 1 5 4 4 5 2 3 5 4 4 1 3 3 4 3 3 4 2 3 6 8 8 5 4 3 13 8 5 9 7 4 3 3
2 3 4 4 6 7 7 10 9 6 4 4 4 5 8 11 14 5 2 3 1 3 5 2 4 3 5 7 7 4 3 5 6 4 1 3 2 1 3 4 1 5 8 7 12 12 4 6 3 3 4 4 3 4
3 3 3 4 5 6 7 8 9 11 7 5 4 2 3 5 8 6 1 3 3 3 5 3 4 3 2 5 4 6 2 3 4 3 5 2 3 5 4 8 3 6 5 5 1 7 16 11 6 3 5 5 4 4
6 6 6 6 5 5 6 6 8 9 12 7 8 5 4 3 3 5 1 1 3 2 1 6 2 4 0 4 4 4 6 4 5 2 2 3 3 4 4 4 5 7 6 5 8 15 9 8 6 5 4 3 1 3
8 9 8 8 7 7 7 7 7 8 10 10 9 8 6 5 1 1 2 2 2 3 3 6 5 5 5 2 5 4 6 5 3 2 2 4 2 3 2 2 7 9 9 8 11 10 6 5 4 5 5 3 1 3
10 10 10 10 10 9 8 8 8 7 8 8 9 9 8 7 4 2 4 2 3 3 2 5 3 4 3 2 6 5 4 3 3 4 4 4 3 3 3 6 7 9 15 17 10 5 6 4 5 5 5 4 3 4
11 11 11 11 10 10 9 8 8 8 7 7 8 8 7 11 3 2 3 3 4 3 1 6 5 4 3 3 3 3 4 2 3 2 3 2 2 5 3 6 4 10 10 9 4 5 5 6 6 8 5 4 3 5
11 11 11 11 11 10 10 8 8 8 8 7 7 8 6 11 5 1 3 6 4 2 2 3 5 5 2 1 0 2 2 1 1 3 1 3 1 3 6 19 4 6 6 7 10 10 7 4 7 6 4 2 3 5
13 12 12 13 12 11 10 9 8 7 6 5 6 5 3 2 2 3 4 7 1 3 3 3 2 4 3 2 1 3 2 1 2 3 4 4 4 11 18 11 11 11 10 8 6 7 7 7 8 6 5 5 5 4
15 15 15 15 14 13 11 10 7 5 3 4 3 1 1 2 5 8 3 2 3 3 4 4 4 5 4 2 1 1 1 4 4 5 3 6 9 17 9 14 16 9 13 9 6 5 5 5 8 6 7 4 4 3
17 17 17 16 15 13 11 11 7 3 4 3 2 1 1 5 2 1 3 4 4 4 4 4 10 8 3 3 4 4 3 2 4 5 5 5 9 6 14 17 14 9 12 14 12 7 9 7 8 7 5 5 3 2
18 17 17 15 15 14 13 12 7 3 2 5 3 2 1 1 1 5 5 3 5 7 4 4 4 4 3 3 3 4 4 4 6 4 3 7 9 10 7 9 7 7 8 10 8 9 9 8 7 7 5 4 3 3
19 18 17 16 16 16 14 14 10 11 8 2 2 2 2 3 6 8 9 5 5 4 4 4 3 4 2 2 4 4 5 6 4 4 7 12 2 9 7 6 7 5 6 7 7 8 9 7 7 6 5 4 3 3
18 18 17 16 16 16 15 15 12 14 4 3 4 7 7 8 8 8 6 4 4 4 6 6 3 3 2 5 3 4 3 1 4 5 12 3 8 7 6 5 2 4 7 9 10 9 9 8 7 6 6 5 3 5
18 18 18 17 17 17 16 16 15 5 4 5 5 9 12 6 4 3 4 3 3 5 7 3 1 2 3 4 3 3 4 7 9 9 5 5 3 5 5 4 5 5 6 7 7 9 8 8 7 6 6 5 3 4
18 19 15 18 17 17 17 15 6 5 6 5 8 6 3 2 5 4 4 3 4 4 3 3 3 4 6 4 5 8 5 10 7 4 4 4 6 9 7 8 5 7 7 7 7 7 7 8 8 7 5 6 5 4
21 8 12 17 17 19 21 6 5 8 8 7 8 6 4 1 4 5 5 5 6 5 4 3 5 8 3 5 6 6 7 3 2 4 4 3 8 12 12 8 6 7 8 8 7 7 7 6 6 5 5 5 4 3
12 5 14 18 14 9 4 8 5 5 9 7 6 6 5 6 9 4 4 4 6 5 6 7 5 6 7 7 7 5 6 7 7 4 5 7 8 16 10 9 6 8 9 9 8 7 7 7 6 5 6 5 4 4
13 9 18 21 13 5 5 7 5 6 10 4 3 3 4 3 7 4 8 9 8 4 6 4 7 7 12 8 11 13 11 9 8 5 7 10 11 11 9 7 6 7 8 9 9 8 7 9 7 5 4 4 3 2
24 23 22 20 19 6 6 4 1 5 7 7 3 3 5 7 6 8 10 10 9 4 7 7 11 13 9 11 9 10 7 5 6 7 9 7 9 8 6 5 6 6 5 6 5 8 5 3 4 4 4 5 3 3
18 13 15 15 8 9 5 4 4 4 3 4 2 7 4 2 7 8 7 7 7 6 9 13 15 15 17 16 14 11 12 7 10 10 10 9 5 4 3 4 4 6 6 6 8 7 10 7 5 5 5 5 4 3
6 15 5 10 4 2 1 5 3 4 4 2 3 5 4 6 5 5 4 7 9 14 13 15 17 16 14 18 17 15 15 11 9 9 12 6 3 3 2 5 6 7 8 8 8 9 8 6 5 5 5 4 5 3
8 9 3 3 5 6 4 5 4 7 5 5 4 4 3 3 4 5 5 7 11 11 12 14 18 18 17 18 14 12 8 12 11 10 9 8 7 4 5 6 7 7 6 6 6 6 6 10 9 6 6 5 3 3
11 8 8 8 7 6 5 5 4 4 4 4 5 5 5 5 4 3 7 8 9 3 6 12 9 11 10 9 9 10 10 7 9 10 6 7 6 7 7 6 6 7 7 5 7 6 6 6 10 7 6 6 5 4
7 8 6 7 5 6 7 7 6 5 5 5 6 3 3 4 5 6 7 3 4 6 7 5 6 7 9 10 8 8 7 6 8 9 5 7 5 3 3 3 4 5 5 7 7 8 7 6 7 7 7 6 6 7
9 8 9 6 5 7 8 8 10 6 4 4 6 3 3 4 4 9 4 3 2 2 2 3 4 2 4 5 6 5 5 3 1 5 8 6 6 6 6 7 5 4 5 6 9 10 9 8 9 10 8 9 11 6
9 6 4 2 3 5 4 2 3 4 7 6 5 6 4 5 8 6 2 2 2 2 2 2 2 3 4 6 6 6 5 4 7 6 3 4 5 6 6 8 11 5 9 9 8 10 11 10 10 9 7 6 5 4
3 7 10 8 3 3 5 4 6 7 5 4 7 7 9 9 6 2 2 1 2 3 3 3 2 2 3 4 4 2 2 2 5 5 5 4 2 2 4 4 4 15 8 8 8 7 8 9 9 9 8 7 4 4
3 4 6 4 3 4 4 5 6 4 4 5 7 5 5 3 0 0 1 2 2 1 2 3 3 3 3 3 3 3 3 2 2 3 3 2 1 1 1 4 6 5 5 6 13 11 10 9 9 7 7 6 4 3
4 3 4 3 4 4 2 2 3 2 1 2 2 2 1 1 2 1 1 2 2 1 2 2 2 1 1 2 2 4 4 3 3 1 2 3 3 3 3 4 5 5 5 6 7 7 13 9 9 6 5 4 3 3
3 3 4 3 3 1 2 1 1 2 2 2 1 2 2 2 1 1 1 2 2 1 2 2 2 3 2 3 2 2 3 3 4 5 4 3 4 4 4 4 4 4 5 6 7 6 7 7 6 7 7 6 6 6
2 3 4 4 2 2 2 1 1 1 1 1 1 1 1 1 2 1 3 3 1 1 2 2 1 2 2 1 3 3 6 3 3 4 4 3 3 3 4 4 4 5 6 6 6 5 6 7 6 6 6 6 6 6
3 3 2 4 3 3 2 3 1 2 1 1 1 1 2 1 2 1 1 2 2 2 2 2 2 2 3 3 2 3 4 2 3 5 5 2 4 6 4 4 4 5 7 6 6 6 7 7 6 5 6 6 6 5
Wind_Direction
63 50 35 18 1 357 350 286 299 322 338 352 5 8 8 13 14 41 290 10 88 133 270 205 198 152 132 146 157 180 67 332 73 161 156 223 179 233 293 221 181 172 158 198 141 171 265 161 75 175 209 201 211 223
48 25 6 5 10 1 344 357 324 285 286 315 336 359 6 13 12 42 27 341 24 141 250 295 264 265 187 188 140 195 194 160 176 108 216 102 215 73 179 260 163 244 201 187 187 214 249 219 227 174 160 179 234 228
295 305 317 333 345 341 348 344 341 343 285 240 244 269 329 5 31 58 0 320 28 25 303 2 260 307 125 187 163 136 268 180 178 175 153 161 212 130 194 233 219 248 175 218 228 253 240 235 251 249 186 198 224 235
284 288 294 299 306 317 329 333 341 331 351 287 222 219 229 276 42 74 51 342 77 107 252 279 334 269 321 164 164 162 148 94 104 117 147 158 176 165 226 260 210 212 146 204 263 277 264 260 227 220 198 197 285 330
274 277 281 284 293 300 307 318 328 331 342 346 332 225 211 209 226 92 194 206 141 119 262 286 313 265 284 190 187 140 133 123 131 115 133 218 177 148 202 9 242 186 187 201 237 233 202 211 183 173 196 199 269 292
262 268 273 275 282 282 286 302 304 317 322 332 332 323 218 182 124 19 355 355 190 120 41 316 297 315 348 148 153 147 134 107 113 145 209 242 289 159 183 242 242 199 216 226 239 178 195 205 222 171 173 180 235 264
255 259 265 264 266 280 282 282 302 301 313 324 325 325 253 168 133 172 204 211 176 137 41 307 302 318 334 68 34 63 35 94 128 182 220 204 243 171 199 236 187 214 223 231 232 149 257 180 213 174 160 186 272 270
252 255 259 263 264 271 276 274 290 301 306 319 324 330 318 182 82 74 249 187 152 115 128 264 278 345 355 28 74 9 107 28 262 211 127 192 283 194 255 241 236 216 218 234 236 207 219 140 136 158 152 173 258 280
253 255 259 261 263 266 272 270 283 297 319 340 349 320 74 149 179 227 201 148 105 188 219 177 234 273 358 25 25 16 51 36 312 240 227 147 218 224 230 248 234 212 200 220 239 205 175 175 177 176 185 214 239 277
250 252 253 253 255 258 261 267 274 301 3 23 56 61 263 241 167 111 56 191 209 198 229 220 140 241 117 91 292 137 139 216 226 232 137 226 253 246 246 254 253 231 211 190 185 192 177 193 192 191 201 207 234 272
244 245 247 247 248 250 248 255 258 82 63 62 115 105 32 78 32 253 232 203 180 233 212 215 196 221 190 158 198 209 200 199 239 238 190 250 264 243 223 242 250 237 194 204 212 199 184 168 174 183 196 218 237 278
244 243 244 243 245 245 239 245 225 118 176 173 121 99 81 188 230 234 219 204 209 225 194 179 203 195 175 165 184 200 214 182 247 141 232 260 248 239 251 251 261 228 204 200 183 163 158 156 157 164 178 203 215 257
245 245 244 242 238 237 236 236 216 139 115 73 64 131 166 194 227 215 199 204 208 180 179 158 161 161 126 180 213 205 222 219 98 206 235 237 258 269 262 262 266 221 190 153 149 149 147 153 163 164 180 206 208 283
244 246 244 241 240 235 230 230 210 152 116 170 169 208 209 218 225 207 195 166 201 153 155 146 135 167 191 199 205 232 215 158 212 231 236 243 242 288 267 248 233 233 181 167 160 150 154 164 179 180 182 187 216 279
245 243 242 238 236 233 224 225 217 156 158 181 190 224 222 218 228 213 171 144 178 136 134 84 102 169 181 248 214 219 217 236 215 233 248 253 259 278 263 236 204 181 165 173 158 158 165 173 173 184 200 197 194 245
247 250 245 237 232 226 222 226 215 180 175 199 222 238 235 206 221 163 174 188 153 123 85 93 180 213 207 213 209 219 205 225 240 233 262 313 336 288 321 297 209 173 173 176 167 165 168 172 178 190 200 200 205 224
249 238 213 222 224 220 218 204 175 203 197 213 229 210 213 266 209 179 155 185 153 131 171 172 230 213 183 218 211 200 223 271 274 275 275 247 271 319 295 272 219 172 176 184 171 171 174 175 170 177 202 231 209 231
239 231 220 220 210 215 196 197 199 204 220 220 221 222 203 226 219 185 185 149 142 181 155 208 169 202 222 216 236 229 235 244 233 234 255 276 299 290 272 257 224 197 187 179 176 165 161 168 180 199 203 211 201 240
237 223 221 224 211 197 196 196 173 213 217 202 225 199 195 217 214 190 183 185 188 175 159 180 221 221 234 241 251 254 247 245 258 229 231 251 269 254 250 230 206 203 183 173 168 179 180 183 189 185 189 181 189 211
240 238 233 230 206 191 195 221 143 201 211 212 181 194 194 221 196 205 205 197 194 190 212 219 231 237 235 233 217 236 238 221 215 255 273 265 245 237 232 211 215 199 164 148 166 170 161 174 197 186 184 185 186 207
241 232 240 225 218 201 187 182 183 207 186 217 184 173 215 164 215 209 208 178 191 213 227 226 240 244 242 249 254 256 257 225 224 229 255 270 255 237 218 224 190 164 168 173 181 190 185 194 188 178 180 182 193 205
212 201 192 192 213 153 216 207 185 159 178 207 167 188 195 213 216 197 159 190 222 222 224 235 240 246 249 247 252 244 247 241 236 245 248 225 202 205 211 211 171 204 189 190 184 185 192 186 173 170 174 189 185 190
171 161 121 165 161 187 217 146 182 170 180 185 141 196 224 202 209 144 215 217 239 230 236 239 249 254 255 261 262 255 228 233 242 239 235 230 217 177 221 216 196 195 190 204 181 174 180 180 186 164 177 171 171 191
121 160 172 190 184 188 147 183 175 175 177 181 179 198 204 195 153 213 243 242 245 222 220 237 239 253 255 254 252 251 246 230 244 251 229 205 206 220 205 204 188 205 208 159 166 166 159 164 176 172 174 172 179 207
157 193 175 192 179 143 167 170 157 185 185 174 181 192 177 177 195 230 243 240 204 225 232 234 234 238 250 259 260 260 251 211 232 236 221 202 196 117 170 175 188 182 161 140 158 160 161 161 170 173 174 176 187 214
203 190 174 167 157 166 171 160 183 168 146 159 203 150 142 180 224 242 233 246 242 212 235 221 223 220 250 230 260 257 244 208 196 254 256 197 197 212 204 191 175 213 198 163 151 158 161 169 176 179 180 187 205 209
177 182 164 225 157 133 127 128 129 146 179 183 158 155 165 204 235 246 232 203 221 248 257 247 239 236 262 291 278 269 267 197 215 231 244 198 220 216 203 198 198 199 160 152 159 158 165 173 177 178 174 165 173 169
168 164 170 177 176 174 137 159 169 185 167 168 144 186 187 202 232 228 200 231 223 280 276 268 283 290 302 298 291 296 32 84 87 93 91 56 51 136 138 137 132 150 146 152 150 148 163 168 171 169 167 171 167 157
165 161 123 144 140 165 175 175 196 204 151 157 172 187 221 221 90 90 277 253 270 17 21 8 339 359 14 3 12 32 73 65 73 100 99 110 108 26 41 120 125 125 130 144 162 157 161 161 160 161 162 160 154 142
174 179 114 112 129 184 208 200 174 142 132 144 135 85 25 326 267 225 304 334 28 349 256 241 255 62 277 35 41 30 23 12 13 313 172 183 202 141 126 111 119 121 133 142 147 159 172 159 155 131 128 134 149 168
120 94 73 81 136 209 207 153 71 72 70 83 45 142 195 205 252 79 44 266 277 319 360 350 6 7 18 22 35 44 51 8 28 47 71 88 109 119 123 120 119 120 126 134 138 143 148 149 152 159 168 178 197 204
78 98 117 114 141 140 125 81 98 97 87 130 171 129 130 71 285 352 349 341 0 72 32 13 17 23 19 76 67 56 79 61 26 23 42 81 105 130 136 129 127 131 133 133 130 136 148 152 160 169 178 193 202 210
90 80 96 118 122 159 138 108 113 116 30 160 211 172 164 173 269 41 337 26 360 341 348 351 348 5 20 27 75 72 74 69 58 42 47 86 157 164 148 145 142 142 143 142 147 154 160 163 168 173 182 193 199 204